MTN005 KDEN-KRDM

Flight info

Callsign MTN005
Flight time 2h 1m
Altitude 38000
Route ZIMMR4 CHNGY BOI DSD
Aircraft CRJ7/M-SDFGIRWY/S

Departure

Time 2026-05-07 15:37
Airport Denver International Airport (KDEN)

Arrival

Time 2026-05-07 17:39
Airport Roberts Field (KRDM)
Time Latitude Longitude Altitude Speed Heading
2026-05-07 14:59 39.85750 -104.66624 5364 ft 0 kts
2026-05-07 15:27 39.85732 -104.66625 5363 ft 4 kts
2026-05-07 15:28 39.85704 -104.66626 5364 ft 4 kts
2026-05-07 15:28 39.85677 -104.66628 5363 ft 4 kts
2026-05-07 15:28 39.85660 -104.66628 5364 ft 1 kts
2026-05-07 15:33 39.85664 -104.66628 5363 ft 1 kts
2026-05-07 15:33 39.85677 -104.66603 5364 ft 7 kts 78°
2026-05-07 15:33 39.85680 -104.66508 5364 ft 13 kts 90°
2026-05-07 15:34 39.85679 -104.66393 5364 ft 13 kts 91°
2026-05-07 15:34 39.85681 -104.66281 5364 ft 12 kts 72°
2026-05-07 15:34 39.85718 -104.66235 5364 ft 11 kts 11°
2026-05-07 15:34 39.85817 -104.66231 5364 ft 11 kts 360°
2026-05-07 15:35 39.85890 -104.66232 5364 ft 10 kts
2026-05-07 15:35 39.85962 -104.66231 5364 ft 10 kts
2026-05-07 15:35 39.86033 -104.66230 5364 ft 10 kts
2026-05-07 15:35 39.86096 -104.66202 5362 ft 9 kts 47°
2026-05-07 15:36 39.86106 -104.66125 5364 ft 9 kts 90°
2026-05-07 15:36 39.86090 -104.66033 5362 ft 12 kts 133°
2026-05-07 15:36 39.86045 -104.66015 5362 ft 10 kts 180°
2026-05-07 15:36 39.85778 -104.66022 5364 ft 73 kts 180°
2026-05-07 15:37 39.85047 -104.66032 5360 ft 135 kts 180°
2026-05-07 15:37 39.83994 -104.66057 5608 ft 161 kts 178°
2026-05-07 15:37 39.82892 -104.65809 6403 ft 161 kts 169°
2026-05-07 15:37 39.81857 -104.65862 6741 ft 165 kts 212°
2026-05-07 15:38 39.81256 -104.67010 7226 ft 157 kts 267°
2026-05-07 15:38 39.81711 -104.68262 7707 ft 164 kts 322°
2026-05-07 15:38 39.82723 -104.68916 8328 ft 161 kts 328°
2026-05-07 15:38 39.83693 -104.69639 8942 ft 161 kts 323°
2026-05-07 15:39 39.84606 -104.70504 9532 ft 166 kts 317°
2026-05-07 15:39 39.85488 -104.71612 9829 ft 189 kts 310°
2026-05-07 15:39 39.86337 -104.73081 9969 ft 219 kts 302°
2026-05-07 15:39 39.87140 -104.74922 10056 ft 249 kts 298°
2026-05-07 15:40 39.87929 -104.76986 10038 ft 252 kts 296°
2026-05-07 15:40 39.88715 -104.79112 10038 ft 275 kts 297°
2026-05-07 15:40 39.89607 -104.81494 10040 ft 309 kts 298°
2026-05-07 15:40 39.90630 -104.84125 10045 ft 341 kts 298°
2026-05-07 15:41 39.91766 -104.86976 10097 ft 368 kts 298°
2026-05-07 15:41 39.92885 -104.90026 10099 ft 365 kts 289°
2026-05-07 15:41 39.93328 -104.93162 10101 ft 340 kts 277°
2026-05-07 15:41 39.93461 -104.96141 10122 ft 319 kts 273°
2026-05-07 15:42 39.93488 -104.98996 10146 ft 318 kts 272°
2026-05-07 15:42 39.93514 -105.01910 10159 ft 325 kts 272°
2026-05-07 15:42 39.93547 -105.04878 10201 ft 330 kts 272°
2026-05-07 15:42 39.93582 -105.07887 10207 ft 334 kts 272°
2026-05-07 15:43 39.93642 -105.10928 10226 ft 338 kts 272°
2026-05-07 15:43 39.93706 -105.14001 10234 ft 340 kts 272°
2026-05-07 15:43 39.93774 -105.17088 10266 ft 342 kts 273°
2026-05-07 15:43 39.93837 -105.20181 10645 ft 341 kts 272°
2026-05-07 15:44 39.93958 -105.23276 11372 ft 344 kts 276°
2026-05-07 15:44 39.94178 -105.26392 12105 ft 347 kts 277°
2026-05-07 15:44 39.94446 -105.29540 12813 ft 353 kts 278°
2026-05-07 15:44 39.94712 -105.32735 13617 ft 356 kts 279°
2026-05-07 15:45 39.94976 -105.35959 14253 ft 361 kts 278°
2026-05-07 15:45 39.95236 -105.39232 14882 ft 365 kts 278°
2026-05-07 15:45 39.95496 -105.42527 15490 ft 367 kts 278°
2026-05-07 15:45 39.95745 -105.45850 16127 ft 369 kts 278°
2026-05-07 15:46 39.96269 -105.52554 17323 ft 374 kts 278°
2026-05-07 15:46 39.96519 -105.55932 17930 ft 376 kts 278°
2026-05-07 15:46 39.96785 -105.59332 18564 ft 378 kts 278°
2026-05-07 15:47 39.97046 -105.62743 19104 ft 379 kts 278°
2026-05-07 15:47 39.97308 -105.66165 19617 ft 380 kts 278°
2026-05-07 15:47 39.97537 -105.69550 20094 ft 381 kts 277°
2026-05-07 15:47 39.97730 -105.73055 20623 ft 384 kts 276°
2026-05-07 15:48 39.97905 -105.76540 21058 ft 386 kts 276°
2026-05-07 15:48 39.98082 -105.80045 21482 ft 389 kts 276°
2026-05-07 15:48 39.98262 -105.83578 21892 ft 391 kts 276°
2026-05-07 15:48 39.98440 -105.87131 22270 ft 394 kts 276°
2026-05-07 15:49 39.98617 -105.90702 22658 ft 396 kts 276°
2026-05-07 15:49 39.98793 -105.94298 23031 ft 399 kts 276°
2026-05-07 15:49 39.98969 -105.97916 23404 ft 401 kts 276°
2026-05-07 15:49 39.99143 -106.01510 23758 ft 403 kts 276°
2026-05-07 15:50 39.99320 -106.05170 24102 ft 405 kts 276°
2026-05-07 15:50 39.99496 -106.08839 24428 ft 406 kts 276°
2026-05-07 15:50 39.99669 -106.12530 24744 ft 408 kts 276°
2026-05-07 15:50 39.99842 -106.16220 25033 ft 409 kts 276°
2026-05-07 15:51 40.00015 -106.19936 25320 ft 411 kts 276°
2026-05-07 15:51 40.00190 -106.23656 25592 ft 412 kts 276°
2026-05-07 15:51 40.00363 -106.27398 25870 ft 414 kts 276°
2026-05-07 15:51 40.00537 -106.31150 26112 ft 416 kts 276°
2026-05-07 15:52 40.00709 -106.34922 26368 ft 417 kts 276°
2026-05-07 15:52 40.00880 -106.38712 26623 ft 419 kts 276°
2026-05-07 15:52 40.01052 -106.42508 26835 ft 420 kts 276°
2026-05-07 15:52 40.01553 -106.46241 27054 ft 417 kts 290°
2026-05-07 15:53 40.02568 -106.49788 27291 ft 418 kts 294°
2026-05-07 15:53 40.03805 -106.53227 27512 ft 419 kts 299°
2026-05-07 15:53 40.05252 -106.56530 27726 ft 420 kts 301°
2026-05-07 15:53 40.06746 -106.59806 27945 ft 421 kts 301°
2026-05-07 15:54 40.08232 -106.63112 28153 ft 422 kts 300°
2026-05-07 15:54 40.09666 -106.66465 28350 ft 424 kts 300°
2026-05-07 15:54 40.11095 -106.69830 28580 ft 423 kts 300°
2026-05-07 15:54 40.12509 -106.73161 29097 ft 417 kts 300°
2026-05-07 15:55 40.13898 -106.76433 29760 ft 407 kts 300°
2026-05-07 15:55 40.15252 -106.79628 30388 ft 398 kts 300°
2026-05-07 15:55 40.16580 -106.82766 30858 ft 391 kts 300°
2026-05-07 15:55 40.17893 -106.85869 31145 ft 389 kts 300°
2026-05-07 15:56 40.19200 -106.88963 31410 ft 388 kts 300°
2026-05-07 15:56 40.20501 -106.92050 31656 ft 387 kts 300°
2026-05-07 15:56 40.21801 -106.95128 31892 ft 386 kts 301°
2026-05-07 15:56 40.23093 -106.98200 32105 ft 385 kts 301°
2026-05-07 15:57 40.24383 -107.01265 32337 ft 384 kts 301°
2026-05-07 15:57 40.25670 -107.04323 32544 ft 383 kts 301°
2026-05-07 15:57 40.26951 -107.07377 32754 ft 382 kts 301°
2026-05-07 15:57 40.28228 -107.10421 32971 ft 381 kts 301°
2026-05-07 15:58 40.29505 -107.13466 33188 ft 380 kts 301°
2026-05-07 15:58 40.30776 -107.16502 33384 ft 380 kts 301°
2026-05-07 15:58 40.32041 -107.19526 33584 ft 379 kts 301°
2026-05-07 15:58 40.33306 -107.22552 33775 ft 378 kts 301°
2026-05-07 15:59 40.34564 -107.25571 33950 ft 377 kts 301°
2026-05-07 15:59 40.35823 -107.28588 34131 ft 377 kts 301°
2026-05-07 15:59 40.37078 -107.31597 34284 ft 376 kts 301°
2026-05-07 15:59 40.38331 -107.34605 34413 ft 376 kts 301°
2026-05-07 16:00 40.39586 -107.37622 34459 ft 378 kts 301°
2026-05-07 16:00 40.42132 -107.43751 34369 ft 387 kts 301°
2026-05-07 16:01 40.44726 -107.50016 34290 ft 394 kts 301°
2026-05-07 16:01 40.47367 -107.56399 34254 ft 401 kts 301°
2026-05-07 16:02 40.50039 -107.62886 34238 ft 406 kts 301°
2026-05-07 16:02 40.52743 -107.69440 34225 ft 410 kts 301°
2026-05-07 16:03 40.55463 -107.76060 34225 ft 413 kts 301°
2026-05-07 16:03 40.58200 -107.82734 34202 ft 415 kts 301°
2026-05-07 16:04 40.60941 -107.89438 34189 ft 416 kts 301°
2026-05-07 16:04 40.63684 -107.96155 34163 ft 417 kts 301°
2026-05-07 16:05 40.66426 -108.02890 34156 ft 418 kts 301°
2026-05-07 16:05 40.69168 -108.09636 34164 ft 418 kts 301°
2026-05-07 16:06 40.71910 -108.16402 34154 ft 419 kts 301°
2026-05-07 16:06 40.74633 -108.23140 34147 ft 419 kts 301°
2026-05-07 16:07 40.77375 -108.29930 34140 ft 420 kts 301°
2026-05-07 16:07 40.80108 -108.36742 34130 ft 420 kts 301°
2026-05-07 16:08 40.82851 -108.43549 34121 ft 420 kts 301°
2026-05-07 16:08 40.85587 -108.50372 34112 ft 420 kts 301°
2026-05-07 16:09 40.88319 -108.57205 34117 ft 421 kts 301°
2026-05-07 16:09 40.91050 -108.64049 34108 ft 421 kts 301°
2026-05-07 16:10 40.93780 -108.70912 34090 ft 422 kts 301°
2026-05-07 16:10 40.96506 -108.77784 34091 ft 422 kts 301°
2026-05-07 16:11 40.99233 -108.84658 34095 ft 422 kts 302°
2026-05-07 16:11 41.01955 -108.91543 34099 ft 422 kts 301°
2026-05-07 16:12 41.04676 -108.98450 34075 ft 422 kts 302°
2026-05-07 16:12 41.07393 -109.05351 34075 ft 422 kts 302°
2026-05-07 16:13 41.10103 -109.12257 34074 ft 422 kts 302°
2026-05-07 16:13 41.12809 -109.19167 34065 ft 422 kts 302°
2026-05-07 16:14 41.15510 -109.26085 34079 ft 423 kts 302°
2026-05-07 16:14 41.18214 -109.33020 34071 ft 423 kts 302°
2026-05-07 16:15 41.20893 -109.39915 34084 ft 424 kts 302°
2026-05-07 16:15 41.23591 -109.46875 34078 ft 424 kts 302°
2026-05-07 16:16 41.26294 -109.53856 34065 ft 425 kts 302°
2026-05-07 16:16 41.28994 -109.60846 34050 ft 425 kts 302°
2026-05-07 16:17 41.31679 -109.67819 34048 ft 423 kts 302°
2026-05-07 16:17 41.34350 -109.74778 34036 ft 422 kts 302°
2026-05-07 16:18 41.37020 -109.81737 34029 ft 422 kts 302°
2026-05-07 16:18 41.39678 -109.88687 34026 ft 421 kts 302°
2026-05-07 16:19 41.42329 -109.95637 34028 ft 421 kts 302°
2026-05-07 16:19 41.44977 -110.02592 34068 ft 420 kts 302°
2026-05-07 16:20 41.47615 -110.09543 34102 ft 420 kts 302°
2026-05-07 16:20 41.50252 -110.16502 34123 ft 420 kts 302°
2026-05-07 16:21 41.52866 -110.23421 34147 ft 420 kts 302°
2026-05-07 16:21 41.55493 -110.30390 34152 ft 421 kts 302°
2026-05-07 16:22 41.58118 -110.37376 34143 ft 421 kts 302°
2026-05-07 16:22 41.60684 -110.44210 34120 ft 421 kts 302°
2026-05-07 16:23 41.62879 -110.50073 34122 ft 421 kts 302°
2026-05-07 16:23 41.65468 -110.57009 34143 ft 419 kts 302°
2026-05-07 16:24 41.68081 -110.64025 34154 ft 418 kts 302°
2026-05-07 16:24 41.70653 -110.70943 34147 ft 418 kts 302°
2026-05-07 16:25 41.73028 -110.77359 34131 ft 418 kts 302°
2026-05-07 16:25 41.75596 -110.84288 34100 ft 417 kts 302°
2026-05-07 16:26 41.78162 -110.91258 34081 ft 417 kts 302°
2026-05-07 16:26 41.80729 -110.98224 34047 ft 417 kts 302°
2026-05-07 16:27 41.83310 -111.05245 34020 ft 422 kts 302°
2026-05-07 16:27 41.85910 -111.12337 34001 ft 425 kts 301°
2026-05-07 16:28 41.88524 -111.19491 34009 ft 428 kts 301°
2026-05-07 16:28 41.91150 -111.26696 34018 ft 431 kts 301°
2026-05-07 16:29 41.93785 -111.33943 34016 ft 433 kts 301°
2026-05-07 16:29 41.96427 -111.41227 34011 ft 435 kts 301°
2026-05-07 16:30 41.99065 -111.48536 34037 ft 436 kts 301°
2026-05-07 16:30 42.01718 -111.55877 34050 ft 437 kts 301°
2026-05-07 16:31 42.04360 -111.63216 34058 ft 438 kts 301°
2026-05-07 16:31 42.07013 -111.70611 34075 ft 440 kts 301°
2026-05-07 16:32 42.09673 -111.78047 34064 ft 441 kts 301°
2026-05-07 16:32 42.12327 -111.85489 34045 ft 441 kts 301°
2026-05-07 16:33 42.14985 -111.92942 34042 ft 441 kts 301°
2026-05-07 16:33 42.17633 -112.00400 34033 ft 441 kts 301°
2026-05-07 16:34 42.20271 -112.07861 34033 ft 442 kts 301°
2026-05-07 16:34 42.22920 -112.15346 34015 ft 442 kts 301°
2026-05-07 16:35 42.25370 -112.22302 34023 ft 442 kts 301°
2026-05-07 16:35 42.28002 -112.29793 33981 ft 441 kts 301°
2026-05-07 16:36 42.30624 -112.37275 33992 ft 440 kts 301°
2026-05-07 16:36 42.33031 -112.44165 34000 ft 441 kts 301°
2026-05-07 16:37 42.35643 -112.51662 34015 ft 441 kts 301°
2026-05-07 16:37 42.38253 -112.59162 34008 ft 441 kts 301°
2026-05-07 16:38 42.40867 -112.66697 33995 ft 442 kts 301°
2026-05-07 16:38 42.43454 -112.74180 33986 ft 442 kts 301°
2026-05-07 16:39 42.46053 -112.81724 33990 ft 442 kts 301°
2026-05-07 16:39 42.48655 -112.89284 33991 ft 443 kts 301°
2026-05-07 16:40 42.51252 -112.96847 33989 ft 444 kts 301°
2026-05-07 16:40 42.53847 -113.04445 33985 ft 444 kts 301°
2026-05-07 16:41 42.56440 -113.12049 33987 ft 445 kts 301°
2026-05-07 16:41 42.58853 -113.19134 33978 ft 445 kts 300°
2026-05-07 16:42 42.61382 -113.26586 33976 ft 445 kts 300°
2026-05-07 16:42 42.63964 -113.34215 33995 ft 445 kts 300°
2026-05-07 16:43 42.66545 -113.41871 34006 ft 445 kts 300°
2026-05-07 16:43 42.69122 -113.49528 34016 ft 446 kts 300°
2026-05-07 16:44 42.71697 -113.57198 34028 ft 446 kts 300°
2026-05-07 16:44 42.74263 -113.64867 34029 ft 446 kts 300°
2026-05-07 16:45 42.76827 -113.72556 34021 ft 446 kts 300°
2026-05-07 16:45 42.79380 -113.80230 34015 ft 446 kts 300°
2026-05-07 16:46 42.81936 -113.87931 34003 ft 446 kts 300°
2026-05-07 16:46 42.84485 -113.95640 33988 ft 446 kts 300°
2026-05-07 16:47 42.87030 -114.03350 33991 ft 446 kts 300°
2026-05-07 16:47 42.89569 -114.11073 34013 ft 447 kts 300°
2026-05-07 16:48 42.92106 -114.18805 34023 ft 447 kts 300°
2026-05-07 16:48 42.94634 -114.26535 34026 ft 447 kts 300°
2026-05-07 16:49 42.97168 -114.34305 34032 ft 447 kts 299°
2026-05-07 16:49 42.99687 -114.42055 34023 ft 447 kts 299°
2026-05-07 16:50 43.02209 -114.49833 34044 ft 448 kts 299°
2026-05-07 16:50 43.04712 -114.57572 34059 ft 448 kts 299°
2026-05-07 16:51 43.07224 -114.65362 34056 ft 448 kts 299°
2026-05-07 16:51 43.09732 -114.73173 34051 ft 448 kts 299°
2026-05-07 16:52 43.12239 -114.80992 34045 ft 449 kts 298°
2026-05-07 16:52 43.14739 -114.88813 34045 ft 449 kts 298°
2026-05-07 16:53 43.17237 -114.96661 34029 ft 450 kts 298°
2026-05-07 16:53 43.19738 -115.04527 34011 ft 450 kts 298°
2026-05-07 16:54 43.22235 -115.12417 34013 ft 451 kts 298°
2026-05-07 16:54 43.24726 -115.20310 34015 ft 451 kts 298°
2026-05-07 16:55 43.27216 -115.28216 34011 ft 452 kts 298°
2026-05-07 16:55 43.29704 -115.36145 34019 ft 452 kts 298°
2026-05-07 16:56 43.32179 -115.44064 34020 ft 453 kts 298°
2026-05-07 16:56 43.35904 -115.56002 34020 ft 453 kts 297°
2026-05-07 16:57 43.38377 -115.63969 34017 ft 453 kts 297°
2026-05-07 16:57 43.40805 -115.71812 34015 ft 453 kts 297°
2026-05-07 16:58 43.43268 -115.79794 34026 ft 453 kts 297°
2026-05-07 16:58 43.45711 -115.87732 34042 ft 454 kts 297°
2026-05-07 16:59 43.48059 -115.95384 34048 ft 454 kts 297°
2026-05-07 16:59 43.50505 -116.03388 34065 ft 454 kts 297°
2026-05-07 17:00 43.52951 -116.11396 34081 ft 454 kts 297°
2026-05-07 17:00 43.55072 -116.19613 34087 ft 458 kts 291°
2026-05-07 17:01 43.56777 -116.28100 34081 ft 460 kts 288°
2026-05-07 17:01 43.58120 -116.36742 34077 ft 461 kts 286°
2026-05-07 17:02 43.59430 -116.45409 34084 ft 461 kts 287°
2026-05-07 17:02 43.60794 -116.54055 34086 ft 461 kts 287°
2026-05-07 17:03 43.62153 -116.62708 34077 ft 462 kts 287°
2026-05-07 17:03 43.63509 -116.71373 34076 ft 462 kts 287°
2026-05-07 17:04 43.64859 -116.80045 34075 ft 462 kts 286°
2026-05-07 17:04 43.66202 -116.88723 34059 ft 462 kts 286°
2026-05-07 17:05 43.67538 -116.97400 34051 ft 462 kts 286°
2026-05-07 17:05 43.68870 -117.06084 34037 ft 462 kts 286°
2026-05-07 17:06 43.70192 -117.14771 34035 ft 462 kts 286°
2026-05-07 17:06 43.71508 -117.23456 34034 ft 462 kts 286°
2026-05-07 17:07 43.72819 -117.32146 34030 ft 462 kts 285°
2026-05-07 17:07 43.74119 -117.40837 34035 ft 462 kts 285°
2026-05-07 17:08 43.75414 -117.49531 34042 ft 461 kts 285°
2026-05-07 17:08 43.76697 -117.58168 34041 ft 461 kts 285°
2026-05-07 17:09 43.77977 -117.66863 34054 ft 461 kts 285°
2026-05-07 17:09 43.79271 -117.75556 34066 ft 460 kts 288°
2026-05-07 17:10 43.81488 -117.83781 34062 ft 456 kts 294°
2026-05-07 17:10 43.83552 -117.92106 34053 ft 458 kts 290°
2026-05-07 17:11 43.85093 -117.99109 34049 ft 457 kts 290°
2026-05-07 17:11 43.86976 -118.07518 34051 ft 456 kts 290°
2026-05-07 17:12 43.88891 -118.15901 34061 ft 456 kts 290°
2026-05-07 17:12 43.90806 -118.24281 34063 ft 456 kts 290°
2026-05-07 17:13 43.92711 -118.32664 34064 ft 456 kts 290°
2026-05-07 17:13 43.94611 -118.41055 34064 ft 456 kts 290°
2026-05-07 17:14 43.96505 -118.49457 34070 ft 456 kts 290°
2026-05-07 17:14 43.98394 -118.57860 34059 ft 456 kts 290°
2026-05-07 17:15 44.00273 -118.66257 34066 ft 455 kts 290°
2026-05-07 17:15 44.02146 -118.74660 34065 ft 455 kts 290°
2026-05-07 17:16 44.04013 -118.83069 34074 ft 455 kts 289°
2026-05-07 17:16 44.05869 -118.91462 34083 ft 455 kts 289°
2026-05-07 17:17 44.07727 -118.99893 33676 ft 454 kts 289°
2026-05-07 17:17 44.08632 -119.04027 33164 ft 441 kts 289°
2026-05-07 17:17 44.09514 -119.08050 32568 ft 429 kts 289°
2026-05-07 17:18 44.10371 -119.11969 31980 ft 418 kts 289°
2026-05-07 17:18 44.11208 -119.15803 31406 ft 410 kts 289°
2026-05-07 17:18 44.12028 -119.19561 30854 ft 402 kts 289°
2026-05-07 17:18 44.12838 -119.23280 30303 ft 405 kts 289°
2026-05-07 17:19 44.13669 -119.27092 29700 ft 418 kts 289°
2026-05-07 17:19 44.14510 -119.30959 29077 ft 415 kts 289°
2026-05-07 17:19 44.15334 -119.34783 28472 ft 410 kts 289°
2026-05-07 17:19 44.16151 -119.38564 27877 ft 406 kts 289°
2026-05-07 17:20 44.16957 -119.42299 27294 ft 398 kts 289°
2026-05-07 17:20 44.17743 -119.45960 26706 ft 391 kts 289°
2026-05-07 17:20 44.18514 -119.49547 26162 ft 385 kts 289°
2026-05-07 17:20 44.19268 -119.53052 25623 ft 381 kts 289°
2026-05-07 17:21 44.20032 -119.56624 25074 ft 377 kts 289°
2026-05-07 17:21 44.20766 -119.60059 24544 ft 374 kts 289°
2026-05-07 17:21 44.21508 -119.63531 24021 ft 374 kts 289°
2026-05-07 17:21 44.22251 -119.67008 23480 ft 375 kts 289°
2026-05-07 17:22 44.22996 -119.70500 22864 ft 376 kts 289°
2026-05-07 17:22 44.23730 -119.73969 22265 ft 370 kts 289°
2026-05-07 17:22 44.24455 -119.77387 21679 ft 366 kts 289°
2026-05-07 17:22 44.25171 -119.80772 21095 ft 362 kts 289°
2026-05-07 17:23 44.25880 -119.84125 20532 ft 359 kts 288°
2026-05-07 17:23 44.26581 -119.87448 19978 ft 356 kts 288°
2026-05-07 17:23 44.27276 -119.90744 19431 ft 353 kts 288°
2026-05-07 17:23 44.27965 -119.94013 18900 ft 351 kts 288°
2026-05-07 17:24 44.28653 -119.97286 18371 ft 350 kts 288°
2026-05-07 17:24 44.29333 -120.00531 17931 ft 345 kts 288°
2026-05-07 17:24 44.30001 -120.03722 17519 ft 343 kts 288°
2026-05-07 17:24 44.30673 -120.06941 17125 ft 348 kts 288°
2026-05-07 17:25 44.31354 -120.10201 16735 ft 352 kts 288°
2026-05-07 17:25 44.32046 -120.13497 16357 ft 356 kts 287°
2026-05-07 17:25 44.32740 -120.16828 15969 ft 359 kts 287°
2026-05-07 17:25 44.33421 -120.20121 15591 ft 343 kts 287°
2026-05-07 17:26 44.34064 -120.23236 15202 ft 325 kts 287°
2026-05-07 17:26 44.34675 -120.26199 14814 ft 311 kts 287°
2026-05-07 17:26 44.35264 -120.29038 14478 ft 298 kts 287°
2026-05-07 17:26 44.35831 -120.31777 14142 ft 288 kts 287°
2026-05-07 17:27 44.36380 -120.34428 13777 ft 280 kts 287°
2026-05-07 17:27 44.36924 -120.36999 13480 ft 271 kts 287°
2026-05-07 17:27 44.37460 -120.39523 13223 ft 271 kts 287°
2026-05-07 17:27 44.38000 -120.42046 12909 ft 271 kts 287°
2026-05-07 17:28 44.38528 -120.44579 12602 ft 272 kts 286°
2026-05-07 17:28 44.39049 -120.47101 12254 ft 274 kts 286°
2026-05-07 17:28 44.39581 -120.49670 11900 ft 276 kts 286°
2026-05-07 17:28 44.40114 -120.52254 11570 ft 277 kts 286°
2026-05-07 17:29 44.40647 -120.54845 11226 ft 275 kts 285°
2026-05-07 17:29 44.41167 -120.57377 10918 ft 267 kts 286°
2026-05-07 17:29 44.41659 -120.59847 10653 ft 259 kts 285°
2026-05-07 17:30 44.42141 -120.62308 10478 ft 244 kts 285°
2026-05-07 17:30 44.42577 -120.64539 10289 ft 233 kts 286°
2026-05-07 17:30 44.43011 -120.66700 10023 ft 231 kts 286°
2026-05-07 17:30 44.43403 -120.68858 9739 ft 230 kts 276°
2026-05-07 17:31 44.43155 -120.71044 9497 ft 224 kts 254°
2026-05-07 17:31 44.42569 -120.73032 9261 ft 218 kts 246°
2026-05-07 17:31 44.41844 -120.74878 8980 ft 215 kts 242°
2026-05-07 17:31 44.41076 -120.76647 8695 ft 211 kts 240°
2026-05-07 17:32 44.40326 -120.78387 8400 ft 207 kts 242°
2026-05-07 17:32 44.39635 -120.80082 8130 ft 188 kts 242°
2026-05-07 17:32 44.39038 -120.81542 7859 ft 164 kts 242°
2026-05-07 17:32 44.38475 -120.82964 7545 ft 166 kts 243°
2026-05-07 17:33 44.37916 -120.84354 7209 ft 167 kts 243°
2026-05-07 17:33 44.37331 -120.85811 6920 ft 176 kts 242°
2026-05-07 17:33 44.36723 -120.87284 6684 ft 169 kts 242°
2026-05-07 17:33 44.36130 -120.88767 6416 ft 182 kts 242°
2026-05-07 17:34 44.35535 -120.90236 6203 ft 165 kts 243°
2026-05-07 17:34 44.34982 -120.91594 5928 ft 162 kts 241°
2026-05-07 17:34 44.34403 -120.93008 5721 ft 171 kts 242°
2026-05-07 17:34 44.33801 -120.94466 5484 ft 173 kts 240°
2026-05-07 17:35 44.33199 -120.95904 5411 ft 170 kts 242°
2026-05-07 17:35 44.32640 -120.97335 5334 ft 165 kts 242°
2026-05-07 17:35 44.32085 -120.98709 5330 ft 160 kts 242°
2026-05-07 17:35 44.31513 -121.00037 5326 ft 159 kts 241°
2026-05-07 17:36 44.30962 -121.01421 5145 ft 167 kts 243°
2026-05-07 17:36 44.30399 -121.02859 4912 ft 167 kts 242°
2026-05-07 17:36 44.29862 -121.04202 4666 ft 156 kts 240°
2026-05-07 17:36 44.29295 -121.05526 4434 ft 162 kts 239°
2026-05-07 17:37 44.28724 -121.06888 4236 ft 163 kts 242°
2026-05-07 17:37 44.28178 -121.08256 4025 ft 164 kts 242°
2026-05-07 17:37 44.27634 -121.09616 3799 ft 155 kts 242°
2026-05-07 17:37 44.27092 -121.10952 3574 ft 154 kts 242°
2026-05-07 17:38 44.26588 -121.12178 3390 ft 146 kts 243°
2026-05-07 17:38 44.26085 -121.13417 3220 ft 147 kts 242°
2026-05-07 17:38 44.25603 -121.14578 3065 ft 125 kts 240°
2026-05-07 17:38 44.25286 -121.15368 3077 ft 50 kts 241°
2026-05-07 17:39 44.25180 -121.15641 3074 ft 22 kts 253°
2026-05-07 17:39 44.25208 -121.15732 3074 ft 0 kts 342°
2026-05-07 17:40 44.25209 -121.15732 3074 ft 1 kts 341°
2026-05-07 17:40 44.25233 -121.15749 3077 ft 1 kts 331°
2026-05-07 17:40 44.25246 -121.15760 3079 ft 3 kts 329°
2026-05-07 17:40 44.25268 -121.15784 3077 ft 5 kts 317°
2026-05-07 17:41 44.25270 -121.15839 3080 ft 8 kts 246°
2026-05-07 17:41 44.25260 -121.15917 3077 ft 7 kts 313°
2026-05-07 17:41 44.25283 -121.15939 3076 ft 1 kts 330°
2026-05-07 17:41 44.25285 -121.15940 3076 ft 0 kts 330°
2026-05-07 17:43 44.25284 -121.15940 3076 ft 0 kts 330°